Weather in Lopatin

Ukraine / Lviv District     50°12′54″N   24°51′37″E
temp.,
°C
wind,
m/s
gust,
m/s
humid.,
%
clouds,
%
prec.,
mm/h
press.,
hPa
HPBL,
m
24 july, sat
sat2400:00+17w116580 0.0 101711
03:00+17wsw2265100 0.0 101724
06:00+17w1167100 0.0 101611
09:00+19ssw1172100 0.0 101758
12:00+20s1264100 0.0 1017285
15:00+25se12486 0.0 10161422
18:00+25sse224715 0.0 10161623
21:00+21se236688 0.0 101633
25 july, sun
sun2500:00+20sse356289 0.0 1017114
03:00+17sse22701 0.0 101737
06:00+15se337542 0.0 101747
09:00+21sse466253 0.0 1018344
12:00+25sse455150 0.0 10181271
15:00+27se4344100 0.0 10172004
18:00+27se44465 0.0 10162305
21:00+21ese477446 0.0 1016152
26 july, mon
mon2600:00+20se4117029 0.0 1017230
03:00+19se4127410 0.0 1017248
06:00+19ese5116480 0.0 1016339
09:00+21se586589 0.0 1016328
12:00+25sse465790 0.0 1016559
15:00+27sse5652100 0.0 1016745
18:00+28sse685281 0.0 10151038
21:00+21sse5147124 0.4 1016399
27 july, tue
tue2700:00+18se3109370 4.4 1016207
03:00+17se36913 5.9 1016122
06:00+16se249328 0.3 101659
09:00+22sse23767 0.6 1015270
12:00+27s235997 0.2 1015764
15:00+30sw344999 0.2 10141676
18:00+30ssw345315 0.0 10141535
21:00+26se377047 0.0 1012131
28 july, wed
wed2800:00+22ssw228836 0.9 101315
03:00+21ese22915 1.5 101231
06:00+20s33935 0.0 101143
09:00+25s4106853 0.0 1010476
12:00+29sw7124785 0.0 10101882
15:00+28wsw795356 0.0 10091864
18:00+27wsw811610 0.1 10101579
21:00+22wnw714710 0.1 1011941